User: anonymous   Login
Location: LDNL
(36.4545°S, 141.6685°E)
Time: 09:38:39
(UTC+10:00)
Language:

Envisat - Orbit

View from above orbital plane
View from above orbital plane
View from above satellite
View from above satellite

Ground track
Ground track

The orbit data is extracted from the following two-line orbital elements,

1 27386U 02009A   22227.47433784  .00000071  00000-0  36957-4 0  9994
2 27386  98.1879 205.8269 0001400  85.8240  80.1523 14.38144995 71942
Epoch (UTC): 15 August 2022 11:23:02
Eccentricity: 0.0001400
inclination: 98.1879°
perigee height: 763 km
apogee height: 765 km
right ascension of ascending node: 205.8269°
argument of perigee: 85.8240°
revolutions per day: 14.38144995
mean anomaly at epoch: 80.1523°
orbit number at epoch: 7194

The dashed part of the orbit path shows where the satellite is in the earth's shadow,  

DLR